Location: De Greiden
(52.9496°N, 5.9137°E)
Time: 02:01:26
(UTC+00:00)

ISS - Pass Details

Date: 24 January 2021
Orbit: 417 x 422 km, 51.6° (Epoch: 27 February)

Event Time Altitude Azimuth Distance (km) Brightness Sun altitude
Rises 19:15:21 0° 265° (W) 2,378 1.3 -28.1°
Reaches altitude 10° 19:17:27 10° 263° (W) 1,514 0.0 -28.4°
Enters shadow 19:18:32 19° 261° (W) 1,083 -1.0 -28.5°
